Location: Silverdale
(47.6506°N, 122.6941°W)
Time: 23:47:17
(UTC+00:00)

A-11 Canister half - Pass Details

Date: 10 October 2022
Orbit: 1524 x 1685 km, 47.3° (Epoch: 05 December)

Event Time Altitude Azimuth Distance (km) Brightness Sun altitude
Rises 03:10:33 0° 289° (WNW) 4,686 13.2 -17.1°
Reaches altitude 10° 03:13:39 10° 285° (WNW) 3,712 12.3 -17.6°
Maximum altitude 03:22:39 54° 212° (SSW) 1,839 9.5 -19.1°
Enters shadow 03:29:55 18° 142° (SE) 3,210 10.2 -20.3°
